Mankato, MN

4:26 PM CST on December 11, 2019 (GMT -0600)
Mankato Regional

Weather History for KMKT - May, 2019

Change the Weather History Date:

Sunday, May 12, 2019

  Actual Average Record
Temperature  
Mean Temperature 52 °F -  
Max Temperature 60 °F 64 °F 78 °F (2017)
Min Temperature 46 °F 45 °F 30 °F (2013)
Degree Days  
Heating Degree Days 12    
Growing Degree Days 2 (Base 50)    
Moisture  
Dew Point 39 °F    
Average Humidity 62    
Maximum Humidity 87    
Minimum Humidity 39    
Precipitation  
Precipitation 0.00 in - - ()
Sea Level Pressure  
Sea Level Pressure 29.90 in    
Wind  
Wind Speed 9 mph (SE)    
Max Wind Speed 14 mph    
Max Gust Speed 17 mph    
Visibility 10 miles    
Events      
Averages and records for this station are not official NWS values.
T = Trace of Precipitation, MM = Missing Value Source: NWS Daily Summary

Daily Weather History Graph

Daily Weather History Graph

Search for Another Location

Airport or City:

Astronomy

May. 12, 2019 Rise Set
Actual Time 5:52 AM CDT 8:32 PM CDT
Civil Twilight 5:19 AM CDT 9:05 PM CDT
Nautical Twilight 4:37 AM CDT 9:47 PM CDT
Astronomical Twilight 3:50 AM CDT 10:35 PM CDT
Moon 1:15 PM CDT (5/12) 2:53 AM CDT (5/12)
Length of Visible Light 15h 46m
Length of Day
14h 39m
First Quarter, 58% of the Moon is Illuminated
May 12
First Quarter
May 18
Full
May 26
Last Quarter
Jun 3
New
Jun 10
First Quarter

Hourly Weather History & Observations

Time (CDT) Temp. Windchill Dew Point Humidity Pressure Visibility Wind Dir Wind Speed Gust Speed Precip Events Conditions
12:56 AM 46.9 °F - 43.0 °F 86% 29.90 in 10.0 mi SSE 10.4 mph - N/A   Mostly Cloudy
1:56 AM 46.0 °F 40.2 °F 42.1 °F 86% 29.89 in 10.0 mi SE 12.7 mph - N/A   Clear
3:56 AM 46.9 °F - 42.1 °F 83% 29.89 in 10.0 mi SSE 13.8 mph - N/A   Overcast
4:56 AM 46.9 °F - 42.1 °F 83% 29.89 in 10.0 mi SSE 10.4 mph - N/A   Overcast
5:13 AM 46.4 °F 41.5 °F 42.8 °F 87% 29.87 in 10.0 mi SSE 10.4 mph - N/A   Overcast
5:56 AM 46.9 °F - 42.1 °F 83% 29.90 in 10.0 mi South 8.1 mph - 0.00 in   Overcast
6:56 AM 46.9 °F - 41.0 °F 80% 29.90 in 10.0 mi Variable 6.9 mph - N/A   Overcast
7:49 AM 48.2 °F - 42.8 °F 82% 29.89 in 10.0 mi SE 11.5 mph - N/A   Overcast
7:56 AM 48.9 °F - 43.0 °F 80% 29.91 in 10.0 mi SE 11.5 mph - N/A   Overcast
8:56 AM 48.9 °F - 43.0 °F 80% 29.91 in 10.0 mi SSE 12.7 mph - N/A   Mostly Cloudy
9:19 AM 51.8 °F - 41.0 °F 67% 29.90 in 10.0 mi SSE 12.7 mph - N/A   Partly Cloudy
9:56 AM 53.1 °F - 41.0 °F 64% 29.91 in 10.0 mi South 10.4 mph - N/A   Mostly Cloudy
10:29 AM 51.8 °F - 39.2 °F 62% 29.90 in 10.0 mi SSE 10.4 mph - N/A   Mostly Cloudy
10:56 AM 54.0 °F - 39.0 °F 57% 29.91 in 10.0 mi SSW 6.9 mph - N/A   Mostly Cloudy
11:56 AM 55.9 °F - 37.0 °F 49% 29.91 in 10.0 mi SSE 9.2 mph 17.3 mph N/A   Mostly Cloudy
12:56 PM 57.0 °F - 36.0 °F 45% 29.90 in 10.0 mi ESE 10.4 mph - N/A   Overcast
1:56 PM 55.9 °F - 35.1 °F 45% 29.91 in 10.0 mi East 6.9 mph - N/A   Overcast
2:56 PM 57.0 °F - 36.0 °F 45% 29.90 in 10.0 mi ENE 4.6 mph - N/A   Overcast
3:56 PM 59.0 °F - 37.0 °F 44% 29.90 in 10.0 mi Variable 4.6 mph - N/A   Overcast
4:56 PM 59.0 °F - 36.0 °F 42% 29.89 in 10.0 mi East 5.8 mph - N/A   Overcast
5:56 PM 57.9 °F - 34.0 °F 41% 29.89 in 10.0 mi Calm Calm - N/A   Partly Cloudy
6:56 PM 59.0 °F - 34.0 °F 39% 29.89 in 10.0 mi SSE 3.5 mph - N/A   Partly Cloudy
7:56 PM 57.9 °F - 33.1 °F 39% 29.89 in 8.0 mi Calm Calm - N/A   Mostly Cloudy
8:56 PM 55.0 °F - 36.0 °F 49% 29.91 in 10.0 mi NW 4.6 mph - N/A   Clear
9:56 PM 53.1 °F - 36.0 °F 52% 29.92 in 10.0 mi Calm Calm - N/A   Clear
10:56 PM 52.0 °F - 35.1 °F 53% 29.93 in 10.0 mi Calm Calm - N/A   Clear